Content
SEND FEEDBACK

Daily
Averages
Monthly
Summary
United States of America

HEWITT, WISCONSIN


Home > North America > United States > Wisconsin
Elevation: 1250 feet     Latitude: 44 39N     Longitude: 090 07W

WEATHER
 
SELECT A DAY
Number of Records: 205,637;   Date Range: 7/1/96 - 12/21/14
 
SHARE

PRINT THIS DATA

[ ← Previous Day ]
WEATHER ALMANAC - JULY 22, 2014
[ Next Day → ]
[ °C ]   °F
Weather ElementAverageHighLow
Temperature76.4 °F84.9 °F (11:18 am)64.9 °F (11:54 pm)
Dewpoint67 °F73.9 °F (10:54 am)57 °F (10:54 pm)
Humidity73.4 %85 % (6:54 am)55 % (1:54 pm)
Barometer29.93 in30.10 in (11:54 pm)29.84 in (3:54 am)
Wind Speed12.7 mph18.4 mph (4:54 pm)
Wind Gust26.5 mph (1:54 pm)
Weather ElementAverage
Visibility9.6 mi
Wind DirectionSW (224.8 °)

Weather ElementTotal
Precipitation---
Cooling Degree Days9.9 (Base 65)
Growing Degree Days24.9 (Base 50)
Averaged from 27 records on July 22, 2014
WEATHER CONDITIONS BREAKOUT
WIND DIRECTION BREAKOUT
WEATHER BY HOUR - JULY 22, 2014
[ °C ]   °F
Local TimeTemperatureDewpointHumidityBarometerVisibilityWind DirectionWind SpeedGust SpeedPrecipitationEventsConditions
1:25 AM73.0 °F68.0 °F84 %29.95 in10.0 miSouth (180°)10.4 mphOvercast
1:54 AM73.0 °F68.0 °F84 %29.92 in10.0 miSouth (190°)9.2 mphScattered Clouds
2:07 AM73.0 °F68.0 °F84 %29.94 in10.0 miSouth (180°)10.4 mphMostly Cloudy
2:27 AM73.0 °F68.0 °F84 %29.93 in10.0 miSouth (180°)10.4 mphScattered Clouds
2:54 AM73.0 °F68.0 °F84 %29.90 in10.0 miSouth (190°)10.4 mphScattered Clouds
3:54 AM73.0 °F68.0 °F84 %29.84 in10.0 miSouth (180°)15.0 mph24.2 mphPartly Cloudy
4:54 AM73.0 °F68.0 °F84 %29.86 in10.0 miSouth (190°)11.5 mphScattered Clouds
5:54 AM73.0 °F68.0 °F84 %29.85 in9.0 miSSW (210°)10.4 mphPartly Cloudy
6:54 AM73.9 °F69.1 °F85 %29.85 in9.0 miSSW (200°)11.5 mphClear
7:51 AM75.2 °F69.8 °F83 %29.90 in8.0 miSW (230°)11.5 mphOvercast
7:54 AM75.0 °F70.0 °F84 %29.88 in8.0 miSW (230°)10.4 mphOvercast
8:54 AM77.0 °F71.1 °F82 %29.87 in8.0 miWSW (250°)12.7 mphOvercast
9:19 AM79.0 °F72.0 °F79 %29.89 in8.0 miWSW (240°)12.7 mph20.7 mphOvercast
9:54 AM80.1 °F73.0 °F79 %29.87 in8.0 miWest (260°)11.5 mph20.7 mphMostly Cloudy
10:54 AM84.0 °F73.9 °F72 %29.85 in10.0 miWest (260°)10.4 mphMostly Cloudy
11:18 AM84.9 °F73.0 °F67 %29.88 in10.0 miWest (270°)13.8 mph21.9 mphMostly Cloudy
12:54 PM84.9 °F68.0 °F57 %29.91 in10.0 miWNW (300°)17.3 mphClear
1:54 PM84.0 °F66.0 °F55 %29.93 in10.0 miNW (320°)17.3 mph26.5 mphPartly Cloudy
2:54 PM84.0 °F66.0 °F55 %29.93 in10.0 miWNW (300°)15.0 mphClear
3:54 PM81.0 °F66.0 °F60 %29.96 in10.0 miNW (320°)15.0 mphScattered Clouds
4:54 PM81.0 °F64.9 °F58 %29.97 in10.0 miNW (320°)18.4 mphScattered Clouds
5:54 PM78.1 °F63.0 °F60 %30.00 in10.0 miNW (320°)12.7 mphMostly Cloudy
6:54 PM78.1 °F63.0 °F60 %30.01 in10.0 miNNW (330°)15.0 mphClear
7:54 PM77.0 °F63.0 °F62 %30.04 in10.0 miNorth (360°)17.3 mph25.3 mphMostly Cloudy
9:54 PM69.1 °F57.9 °F68 %30.08 in10.0 miNNE (20°)12.7 mph19.6 mphClear
10:54 PM66.9 °F57.0 °F70 %30.09 in10.0 miNNE (20°)10.4 mphClear
11:54 PM64.9 °F57.0 °F75 %30.10 in10.0 miNNE (20°)9.2 mphClear
Hourly data recorded from KMFI, located miles away from Hewitt, Wisconsin







STORIES FROM OUR PARTNERS